Regional Weather Roundup
Issued by NWS

Home | Current Version | Previous Version | Graphics & Text | Print | Product List | Glossary On
Versions: 1 2 3 4 5 6 7 8 9 10 11 12 13 14 15 16 17 18 19 20 21 22 23 24 25 26 27 28 29 30 31 32 33 34 35 36 37 38 39 40 41 42 43 44 45 46 47 48 49 50
000
ASUS45 KABQ 222010
RWRNM
WEATHER ROUNDUP FOR NEW MEXICO
NATIONAL WEATHER SERVICE ALBUQUERQUE NM
200 PM MDT MON SEP 22 2014

NOTE: "FAIR" MEANS FEW OR NO CLOUDS BELOW 12,000 FEET AGL WITH NO
       SIGNIFICANT WEATHER OR OBSTRUCTIONS TO VISION.

      THIS PRODUCT IS RELEASED AS TWO VERSIONS.  ONE VERSION NEAR
      THE TOP OF THE HOUR CONTAINING PRELIMINARY DATA FROM ALBUQUERQUE
      AND OTHER STATIONS.  A FINAL VERSION WITH ADDITIONAL DATA IS
      ISSUED ABOUT 10 MINUTES AFTER THE HOUR.

NMZ501-503-504-510>518-222100-
NORTHWEST PLATEAU/NORTHCENTRAL MOUNTAINS

CITY           SKY/WX    TMP DP  RH WIND       PRES   REMARKS
FARMINGTON     PTSUNNY   76  53  44 SW9       30.23F
LOS ALAMOS     MOSUNNY   69  54  58 S16G22    30.34F
SANTA FE       MOSUNNY   73  54  51 VRB5      30.29F
TAOS           PTSUNNY   66  50  55 W7        30.35S
ANGEL FIRE     MOCLDY    62  51  68 S12       30.42S

$$
NMZ402-403-502-505>509-222100-
WESTCENTRAL MOUNTAINS/SOUTHWEST MOUNTAINS

CITY           SKY/WX    TMP DP  RH WIND       PRES   REMARKS
GALLUP         MOSUNNY   67  56  67 CALM      30.32F
GRANTS         MOSUNNY   81  52  36 S12G21    30.29F
SILVER CITY    PTSUNNY   72  64  78 NE3       30.26F

$$
NMZ407-409-411-412-222100-
SOUTHERN DESERTS

CITY           SKY/WX    TMP DP  RH WIND       PRES   REMARKS
LORDSBURG      FAIR      77  63  61 MISG      30.18F
DEMING         MOSUNNY   76  64  66 CALM      30.18F
LAS CRUCES     CLOUDY    72  68  85 E5        30.21F
T OR C         CLOUDY    74  63  68 SE9       30.22F

$$
NMZ519>523-222100-
CENTRAL VALLEYS/CENTRAL HIGHLANDS

CITY           SKY/WX    TMP DP  RH WIND       PRES   REMARKS
ALBUQUERQUE    MOSUNNY   78  55  44 S9        30.24F
DOUBLE EAGLE   PTSUNNY   75  55  50 S9        30.27F
MORIARTY ARPT  FAIR      74  58  56 SE9       30.32F
CLINES CORNERS LGT RAIN  64  58  80 S12       30.36F
BELEN          FAIR      80  56  42 S10G16    30.22F
SOCORRO        FAIR      80  60  49 S8        30.21F

$$
NMZ524>526-539-540-222100-
SOUTHCENTRAL MOUNTAINS

CITY           SKY/WX    TMP DP  RH WIND       PRES   REMARKS
RUIDOSO        LGT RAIN  59  57  94 S9        30.39F

$$
NMZ527>531-222100-
NORTHEAST HIGHLANDS/NORTHEAST PLAINS

CITY           SKY/WX    TMP DP  RH WIND       PRES   REMARKS
LAS VEGAS      LGT RAIN  60  58  92 S15       30.37F
RATON          CLOUDY    65  57  75 S23G29    30.30F
CLAYTON        CLOUDY    69  58  67 S21       30.28F

$$
NMZ532>537-222100-
EASTCENTRAL PLAINS

CITY           SKY/WX    TMP DP  RH WIND       PRES   REMARKS
TUCUMCARI      CLOUDY    73  63  70 S15       30.26F
CANNON AFB     PTSUNNY   70  63  78 SE14      30.29F
CLOVIS AIRPORT   N/A     70  63  78 S12       30.31F

$$
NMZ028-029-538-222100-
SOUTHEAST PLAINS

CITY           SKY/WX    TMP DP  RH WIND       PRES   REMARKS
ROSWELL        RAIN      66  64  93 S14       30.25S FOG
CARLSBAD       CLOUDY    73  73 100 S9        30.20F
HOBBS          PTSUNNY   72  68  88 E13       30.25F


$$


USA.gov is the U.S. government's official web portal to all federal, state and local government web resources and services.